Location: Albuquerque Trailhead
(34.7934°N, 106.3736°W)
Time: 05:32:17
(UTC+00:00)

Cosmos 2263 Rocket - Pass Details

Date: 20 June 2021
Orbit: 822 x 850 km, 71.0° (Epoch: 29 July)

Event Time Altitude Azimuth Distance (km) Brightness Sun altitude
Rises 02:45:42 0° 342° (NNW) 3,417 6.3 -5.0°
Reaches altitude 10° 02:48:12 10° 346° (NNW) 2,480 5.4 -5.4°
Maximum altitude 02:53:50 61° 67° (ENE) 962 2.4 -6.4°
Drops below altitude 10° 02:59:26 10° 147° (SSE) 2,465 4.0 -7.3°
Enters shadow 03:00:17 - 149° (SSE) 2,779 4.3 -7.5°
